Flag for Germany Weather past 2 weeks in Konstanz, Baden-Württemberg, Germany

Now
47 °F

Light rain. Overcast.


Feels Like: 44 °F
Forecast: 35 / 46 °F
Wind: 5 mph from Southwest

Location: Konstanz

Current Time: Mar 2, 2015 at 3:05:16 AM

Latest Report: Mar 2, 2015 at 2:00 AM


Visibility: 5 mi

Pressure: 29.77 "Hg

Humidity: 94%

Dew point: 45 °F

Location of KonstanzLocation

Historic Weather in Konstanz — Graph

°F

Konstanz temperature yesterday

Maximum temperature yesterday: 48 °F (at 5:00 PM)
Minimum temperature yesterday: 31 °F (at 2:00 AM)
Average temperature yesterday: 40 °F

Past Weeks' High & Low Weather Summary

 TemperatureHumidityPressure
High48 °F (Mar 1, 5:00 PM)100% (Feb 20, 4:00 AM)30.77 "Hg (Feb 20, 4:00 AM)
Low26 °F (Feb 20, 8:00 AM)40% (Feb 20, 5:00 PM)29.55 "Hg (Feb 21, 1:00 PM)
Average35 °F85%30.09 "Hg
* Reported Feb 15 2:00 AM — Mar 2 2:00 AM, Konstanz, Weather by CustomWeather, © 2015

Note: Actual official high and low records may vary slightly from our data, if they occured in-between our weather recording intervals... More about our weather records

Advertising

Konstanz weather history for previous 24 hours

 ConditionsComfort  
Time TempWeatherWind HumidityBarometerVisibility
2:00 AM
Mon, Mar 2
47 °FLight rain. Overcast.5 mph94%29.77 "Hg5 mi
1:00 AM47 °FLight rain. Overcast.7 mph90%29.80 "Hg11 mi
12:00 AM48 °FDrizzle. Overcast.7 mph86%29.81 "Hg43 mi
11:00 PM
Sun, Mar 1
47 °FPassing clouds.5 mph91%29.82 "Hg28 mi
10:00 PM47 °FLight rain. Overcast.6 mph93%29.83 "Hg7 mi
9:00 PM47 °FOvercast.3 mph86%29.85 "Hg22 mi
8:00 PM47 °FLight rain. Overcast.3 mph86%29.87 "Hg22 mi
7:00 PM47 °FOvercast.6 mph83%29.85 "Hg22 mi
6:00 PM46 °FLight rain. Overcast.2 mph85%29.86 "Hg22 mi
5:00 PM48 °FLight rain. Overcast.5 mph77%29.86 "Hg14 mi
4:00 PM47 °FRain. Overcast.6 mph78%29.85 "Hg11 mi
3:00 PM47 °FLight rain. Overcast.6 mph74%29.87 "Hg19 mi
2:00 PM46 °FOvercast.6 mph77%29.88 "Hg25 mi
1:00 PM44 °FOvercast.5 mph81%29.91 "Hg22 mi
12:00 PM40 °FOvercast.3 mph83%29.94 "Hg22 mi
11:00 AM38 °FLight rain. Overcast.5 mph89%29.96 "Hg9 mi
10:00 AM37 °FLight rain. Overcast.3 mph91%29.96 "Hg8 mi
9:00 AM36 °FLight rain. Overcast.5 mph95%29.98 "Hg5 mi
8:00 AM35 °FLight rain. Overcast.3 mph94%29.97 "Hg4 mi
7:00 AM36 °FLight rain. Overcast.3 mph87%29.98 "Hg8 mi
6:00 AM35 °FOvercast.1 mph87%29.99 "Hg6 mi
5:00 AM33 °FPassing clouds.2 mph95%30.00 "Hg5 mi
4:00 AM32 °FFog.1 mph95%30.00 "Hg4 mi
3:00 AM32 °FFog.1 mph96%30.02 "Hg4 mi
Weather by CustomWeather, © 2015

See weather overviewHow to use our weather pages